| time (UTC) | temp C | wind direction | speed KPH | gust KPH | rain 1hr cm | rain 24hr cm | rain mn cm | humidity % | barometer mb |
| 20260506190004 | 19 | 185 | 4.8 | 17.7 | 0.00 | 0.00 | 0.00 | 62 | 1004.3 |
| 20260506184003 | 19 | 169 | 4.8 | 14.5 | 0.00 | 0.00 | 0.00 | 60 | 1004.3 |
| 20260506182003 | 20 | 180 | 3.2 | 11.3 | 0.00 | 0.00 | 0.00 | 58 | 1004.1 |
| 20260506180004 | 20 | 167 | 3.2 | 11.3 | 0.00 | 0.00 | 0.00 | 57 | 1003.7 |
| 20260506174024 | 21 | 162 | 4.8 | 19.3 | 0.00 | 0.00 | 0.00 | 55 | 1003.6 |
| 20260506172003 | 21 | 162 | 3.2 | 16.1 | 0.00 | 0.00 | 0.00 | 54 | 1003.8 |
| 20260506170005 | 22 | 162 | 6.4 | 22.5 | 0.00 | 0.00 | 0.00 | 52 | 1004.0 |
| 20260506164004 | 22 | 168 | 8.0 | 27.4 | 0.00 | 0.00 | 0.00 | 51 | 1004.0 |
| 20260506162003 | 23 | 183 | 6.4 | 16.1 | 0.00 | 0.00 | 0.00 | 49 | 1004.2 |
| 20260506160004 | 23 | 165 | 9.7 | 20.9 | 0.00 | 0.00 | 0.00 | 47 | 1004.4 |
| 20260506154003 | 23 | 173 | 8.0 | 19.3 | 0.00 | 0.00 | 0.00 | 45 | 1004.6 |
| 20260506152005 | 23 | 165 | 8.0 | 20.9 | 0.00 | 0.00 | 0.00 | 47 | 1005.0 |
| 20260506150005 | 23 | 170 | 8.0 | 16.1 | 0.00 | 0.00 | 0.00 | 49 | 1005.1 |
| 20260506144003 | 23 | 168 | 8.0 | 20.9 | 0.00 | 0.00 | 0.00 | 48 | 1005.4 |
| 20260506142005 | 23 | 165 | 8.0 | 29.0 | 0.00 | 0.00 | 0.00 | 49 | 1005.5 |
| 20260506140026 | 23 | 178 | 8.0 | 20.9 | 0.00 | 0.00 | 0.00 | 49 | 1005.9 |
| 20260506134005 | 23 | 181 | 9.7 | 20.9 | 0.00 | 0.00 | 0.00 | 49 | 1005.9 |
| 20260506132005 | 23 | 177 | 9.7 | 22.5 | 0.00 | 0.00 | 0.00 | 52 | 1006.1 |
| 20260506130025 | 23 | 169 | 8.0 | 22.5 | 0.00 | 0.00 | 0.00 | 50 | 1006.4 |
| 20260506124004 | 22 | 175 | 8.0 | 20.9 | 0.00 | 0.00 | 0.00 | 52 | 1006.5 |
| 20260506122003 | 22 | 162 | 8.0 | 24.1 | 0.00 | 0.00 | 0.00 | 49 | 1006.8 |
| 20260506120004 | 22 | 195 | 6.4 | 16.1 | 0.00 | 0.00 | 0.00 | 50 | 1006.8 |
| 20260506114003 | 22 | 177 | 4.8 | 16.1 | 0.00 | 0.00 | 0.00 | 48 | 1007.0 |
| 20260506112003 | 23 | 194 | 6.4 | 14.5 | 0.00 | 0.00 | 0.00 | 47 | 1007.2 |
| 20260506110004 | 22 | 185 | 4.8 | 16.1 | 0.00 | 0.00 | 0.00 | 52 | 1007.4 |
| 20260506104005 | 23 | 190 | 6.4 | 14.5 | 0.00 | 0.00 | 0.00 | 48 | 1007.6 |
| 20260506102025 | 22 | 202 | 4.8 | 16.1 | 0.00 | 0.00 | 0.00 | 52 | 1007.6 |
| 20260506100003 | 22 | 179 | 6.4 | 17.7 | 0.00 | 0.00 | 0.00 | 52 | 1007.7 |
| 20260506094003 | 22 | 183 | 4.8 | 16.1 | 0.00 | 0.00 | 0.00 | 53 | 1007.7 |
| 20260506092003 | 21 | 227 | 3.2 | 11.3 | 0.00 | 0.00 | 0.00 | 55 | 1007.8 |
| 20260506090003 | 21 | 196 | 4.8 | 14.5 | 0.00 | 0.00 | 0.00 | 57 | 1007.9 |
| 20260506084024 | 20 | 220 | 3.2 | 9.7 | 0.00 | 0.00 | 0.00 | 60 | 1007.8 |
| 20260506082003 | 20 | 191 | 4.8 | 14.5 | 0.00 | 0.00 | 0.00 | 61 | 1008.0 |
| 20260506072003 | 18 | 191 | 3.2 | 12.9 | 0.00 | 0.00 | 0.00 | 70 | 1008.0 |
| 20260506062005 | 16 | 250 | 1.6 | 8.0 | 0.00 | 0.00 | 0.00 | 79 | 1008.1 |
| 20260506044004 | 10 | 0 | 0.0 | 0.0 | 0.00 | 0.00 | 0.00 | 92 | 1007.4 |
| 20260506042003 | 9 | 0 | 0.0 | 0.0 | 0.00 | 0.00 | 0.00 | 91 | 1007.3 |
| 20260506040024 | 9 | 0 | 0.0 | 0.0 | 0.00 | 0.00 | 0.00 | 89 | 1007.1 |
| 20260506034024 | 9 | 0 | 0.0 | 0.0 | 0.00 | 0.00 | 0.00 | 89 | 1007.0 |
| 20260506032005 | 10 | 0 | 0.0 | 0.0 | 0.00 | 0.00 | 0.00 | 87 | 1006.9 |
| 20260506030003 | 10 | 0 | 0.0 | 0.0 | 0.00 | 0.00 | 0.00 | 86 | 1006.8 |
| 20260506024024 | 10 | 143 | 0.0 | 1.6 | 0.00 | 0.00 | 0.00 | 85 | 1006.6 |
| 20260506022003 | 11 | 0 | 0.0 | 0.0 | 0.00 | 0.00 | 0.00 | 87 | 1006.7 |
| 20260506020005 | 11 | 0 | 0.0 | 0.0 | 0.00 | 0.00 | 0.00 | 85 | 1006.6 |
| 20260506014024 | 11 | 143 | 0.0 | 1.6 | 0.00 | 0.00 | 0.00 | 84 | 1006.5 |
| 20260506012026 | 11 | 143 | 0.0 | 3.2 | 0.00 | 0.00 | 0.00 | 83 | 1006.2 |
| 20260506010004 | 12 | 143 | 0.0 | 1.6 | 0.00 | 0.00 | 0.00 | 81 | 1006.0 |
| 20260506004003 | 12 | 143 | 0.0 | 1.6 | 0.00 | 0.00 | 0.00 | 80 | 1006.0 |
| 20260506002004 | 13 | 0 | 0.0 | 0.0 | 0.00 | 0.00 | 0.00 | 78 | 1005.8 |
| 20260506000005 | 13 | 0 | 0.0 | 0.0 | 0.00 | 0.00 | 0.00 | 76 | 1005.8 |
| 20260505234003 | 13 | 0 | 0.0 | 0.0 | 0.00 | 0.00 | 0.00 | 75 | 1005.8 |
| 20260505232003 | 14 | 0 | 0.0 | 0.0 | 0.00 | 0.00 | 0.00 | 73 | 1005.6 |
| 20260505230004 | 15 | 143 | 0.0 | 1.6 | 0.00 | 0.00 | 0.00 | 70 | 1005.6 |
| 20260505224003 | 15 | 0 | 0.0 | 0.0 | 0.00 | 0.00 | 0.00 | 70 | 1005.5 |
| 20260505222025 | 15 | 143 | 0.0 | 4.8 | 0.00 | 0.00 | 0.00 | 69 | 1005.5 |
| 20260505220004 | 15 | 142 | 0.0 | 4.8 | 0.00 | 0.00 | 0.00 | 70 | 1005.4 |
| 20260505214003 | 14 | 0 | 0.0 | 0.0 | 0.00 | 0.00 | 0.00 | 72 | 1005.3 |
| 20260505212025 | 14 | 0 | 0.0 | 0.0 | 0.00 | 0.00 | 0.00 | 71 | 1005.5 |
| 20260505210024 | 15 | 141 | 0.0 | 4.8 | 0.00 | 0.00 | 0.00 | 66 | 1005.5 |
| 20260505204003 | 16 | 140 | 0.0 | 3.2 | 0.00 | 0.00 | 0.00 | 62 | 1005.5 |
| 20260505202003 | 16 | 140 | 0.0 | 6.4 | 0.00 | 0.00 | 0.00 | 60 | 1005.5 |
| 20260505200024 | 17 | 139 | 1.6 | 11.3 | 0.00 | 0.00 | 0.00 | 58 | 1005.6 |
| 20260505194024 | 17 | 138 | 1.6 | 8.0 | 0.00 | 0.00 | 0.00 | 56 | 1005.3 |
| 20260505192024 | 17 | 153 | 1.6 | 11.3 | 0.00 | 0.00 | 0.00 | 56 | 1005.3 |